EW5753 Weather Reports


Display with metric or nautical units.
time (UTC)temp
F
wind
direction
speed
MPH
gust
MPH
rain 1hr
in
rain 24hr
in
rain mn
in
humidity
%
barometer
mb
20260506133033 55 14 10.0 16.0 0.00 0.00 0.00 82 1012.5
20260506131535 55 11 6.0 19.0 0.00 0.00 0.00 81 1012.1
20260506130030 56 347 7.0 13.0 0.00 0.00 0.00 81 1011.8
20260506124530 56 41 5.0 13.0 0.00 0.00 0.00 82 1011.9
20260506123030 56 320 6.0 14.0 0.00 0.00 0.00 82 1011.5
20260506121531 56 360 6.0 16.0 0.00 0.00 0.00 82 1011.3
20260506120034 56 8 7.0 14.0 0.00 0.00 0.00 81 1011.3
20260506114530 56 347 8.0 15.0 0.00 0.00 0.00 81 1011.0
20260506113032 57 8 4.0 15.0 0.00 0.00 0.00 80 1010.7
20260506111534 57 347 6.0 16.0 0.00 0.00 0.00 80 1010.2
20260506110028 57 360 4.0 14.0 0.00 0.00 0.00 82 1010.0
20260506104532 57 27 5.0 11.0 0.00 0.00 0.00 84 1009.9
20260506103033 57 360 5.0 11.0 0.00 0.00 0.00 84 1009.8
20260506101530 57 337 5.0 11.0 0.00 0.00 0.00 85 1009.6
20260506100034 58 6 3.0 11.0 0.00 0.00 0.00 84 1009.5
20260506094530 58 29 4.0 9.0 0.00 0.00 0.00 84 1009.3
20260506093032 59 324 5.0 10.0 0.00 0.00 0.00 83 1009.2
20260506091532 60 360 5.0 11.0 0.00 0.00 0.00 81 1009.1
20260506090030 61 305 4.0 9.0 0.00 0.00 0.00 79 1009.0
20260506084537 62 310 4.0 10.0 0.00 0.00 0.00 79 1008.8
20260506083033 62 360 3.0 9.0 0.00 0.00 0.00 79 1008.6
20260506081537 62 14 3.0 9.0 0.00 0.00 0.00 79 1008.3
20260506073030 63 334 5.0 10.0 0.00 0.00 0.00 79 1008.6
20260506071532 63 360 3.0 10.0 0.00 0.00 0.00 79 1008.7
20260506061531 64 341 6.0 11.0 0.00 0.00 0.00 78 1008.8
20260506044530 70 332 4.0 11.0 0.00 0.00 0.00 75 1008.1
20260506043031 70 311 4.0 11.0 0.00 0.00 0.00 75 1008.2
20260506041539 71 310 3.0 9.0 0.00 0.00 0.00 73 1008.1
20260506040033 71 326 5.0 12.0 0.00 0.00 0.00 73 1007.9
20260506034546 72 11 5.0 11.0 0.00 0.00 0.00 72 1007.4
20260506033028 73 360 5.0 12.0 0.00 0.00 0.00 71 1007.2
20260506031530 73 360 3.0 11.0 0.00 0.00 0.00 70 1007.4
20260506030032 75 308 4.0 12.0 0.00 0.00 0.00 69 1007.1
20260506024530 76 347 1.0 8.0 0.00 0.00 0.00 70 1006.8
20260506023031 77 312 5.0 11.0 0.00 0.00 0.00 71 1006.3
20260506021528 78 0 0.0 3.0 0.00 0.00 0.00 80 1005.8
20260506020028 78 198 2.0 5.0 0.00 0.00 0.00 80 1005.5
20260506014527 78 248 1.0 4.0 0.00 0.00 0.00 79 1005.6
20260506013043 79 0 0.0 4.0 0.00 0.00 0.00 78 1005.2
20260506011541 79 189 2.0 10.0 0.00 0.00 0.00 78 1005.1
20260506010033 79 193 7.0 14.0 0.00 0.00 0.00 77 1004.4
20260506004532 80 169 10.0 17.0 0.00 0.00 0.00 77 1004.3
20260506003032 80 164 7.0 15.0 0.00 0.00 0.00 76 1004.4
20260506001530 81 145 7.0 15.0 0.00 0.00 0.00 76 1004.2
20260506000033 81 180 9.0 16.0 0.00 0.00 0.00 75 1004.2
20260505234532 81 177 9.0 16.0 0.00 0.00 0.00 75 1004.4
20260505233031 82 154 9.0 18.0 0.00 0.00 0.00 73 1004.2
20260505231530 83 158 9.0 18.0 0.00 0.00 0.00 72 1004.0
20260505230045 84 181 9.0 17.0 0.00 0.00 0.00 71 1003.9
20260505224534 84 164 9.0 17.0 0.00 0.00 0.00 70 1003.8
20260505223039 86 181 11.0 18.0 0.00 0.00 0.00 67 1003.6
20260505221530 87 156 7.0 14.0 0.00 0.00 0.00 66 1003.5
20260505220048 87 149 6.0 15.0 0.00 0.00 0.00 66 1003.7
20260505214536 88 209 6.0 13.0 0.00 0.00 0.00 63 1003.6
20260505213034 88 241 7.0 16.0 0.00 0.00 0.00 62 1003.8
20260505211532 88 170 7.0 14.0 0.00 0.00 0.00 63 1004.0
20260505210033 88 205 7.0 13.0 0.00 0.00 0.00 63 1004.1
20260505204530 88 243 7.0 17.0 0.00 0.00 0.00 63 1004.2
20260505203034 88 195 9.0 17.0 0.00 0.00 0.00 63 1004.5
20260505201533 87 179 8.0 17.0 0.00 0.00 0.00 65 1004.7
20260505200040 86 201 9.0 19.0 0.00 0.00 0.00 66 1004.8
20260505194532 85 211 9.0 19.0 0.00 0.00 0.00 67 1004.7
20260505193034 85 192 10.0 17.0 0.00 0.00 0.00 66 1004.8
20260505191535 84 197 9.0 17.0 0.00 0.00 0.00 68 1005.0
20260505190032 83 185 10.0 18.0 0.00 0.00 0.00 69 1005.2
20260505184532 82 175 9.0 21.0 0.00 0.00 0.00 70 1005.2
20260505183037 82 209 10.0 22.0 0.00 0.00 0.00 70 1005.3
20260505181530 82 178 10.0 20.0 0.00 0.00 0.00 71 1005.4
20260505180032 81 180 9.0 20.0 0.00 0.00 0.00 72 1005.6
20260505174531 80 200 10.0 18.0 0.00 0.00 0.00 73 1005.6
20260505173032 81 183 11.0 20.0 0.00 0.00 0.00 74 1005.4
20260505171532 79 207 11.0 26.0 0.00 0.00 0.00 75 1005.3
20260505170033 79 191 11.0 19.0 0.00 0.00 0.00 75 1005.4
20260505164531 78 214 10.0 24.0 0.00 0.00 0.00 76 1005.2
20260505163032 78 166 11.0 23.0 0.00 0.00 0.00 76 1005.3
20260505161540 77 187 10.0 20.0 0.00 0.00 0.00 78 1005.5
20260505153032 76 233 9.0 20.0 0.00 0.00 0.00 79 1005.5
20260505151531 75 193 12.0 23.0 0.00 0.00 0.00 80 1005.4